Content
SEND FEEDBACK

Indonesia Flag

HASANUDIN, INDONESIA


Home > Asia > Indonesia
Elevation: 46 feet     Latitude: 05 04S     Longitude: 119 33E

WEATHER
 
SELECT A DAY
Number of Records: 232,287;   Date Range: 9/17/97 - 3/22/16
 
SHARE

PRINT THIS DATA

[ ← Previous Day ]
WEATHER ALMANAC - JUNE 29, 2013
[ Next Day → ]
[ °C ]   °F
We're sorry. There is no daily almanac available for Hasanudin, Indonesia on June 29, 2013.
WEATHER BY HOUR - JUNE 29, 2013
[ °C ]   °F
Local TimeTemperatureDewpointHumidityBarometerVisibilityWind DirectionWind SpeedGust SpeedPrecipitationEventsConditions
12:30 AM73.4 °F73.4 °F100 %29.86 in5.0 miESE (110°)3.5 mphPartly Cloudy
1:30 AM73.4 °F73.4 °F100 %29.86 in5.0 miVariable2.3 mphPartly Cloudy
2:00 AM73.0 °F72.0 °F97 %29.86 in5.0 miEast (100°)2.3 mphScattered Clouds
2:00 AM73.4 °F71.6 °F94 %29.86 in5.0 miVariable2.3 mphPartly Cloudy
2:30 AM73.4 °F71.6 °F94 %29.83 in5.0 miVariable2.3 mph
3:00 AM73.4 °F71.6 °F94 %29.83 in5.0 miVariable2.3 mphPartly Cloudy
3:30 AM0.0 °F0.0 °F29.86 in5.0 miESE (120°)3.5 mph
4:00 AM73.4 °F71.6 °F94 %29.83 in5.0 miSE (140°)3.5 mphPartly Cloudy
4:30 AM73.4 °F71.6 °F94 %29.83 in5.0 miVariable2.3 mph
5:00 AM73.0 °F72.0 °F94 %29.85 in5.0 miCalmScattered Clouds
5:00 AM73.4 °F71.6 °F94 %29.83 inNorth
5:30 AM73.4 °F71.6 °F94 %29.83 in5.0 miSE (130°)2.3 mphPartly Cloudy
6:00 AM71.6 °F71.6 °F100 %29.83 in5.0 miVariable2.3 mphPartly Cloudy
6:30 AM73.4 °F71.6 °F94 %29.86 in6.2 miVariable2.3 mphPartly Cloudy
7:00 AM73.4 °F71.6 °F94 %29.86 in6.2 miCalmPartly Cloudy
7:30 AM75.2 °F73.4 °F94 %29.86 in6.2 miSouth (190°)1.2 mphPartly Cloudy
8:00 AM78.0 °F74.0 °F83 %29.89 in6.0 miCalmScattered Clouds
8:00 AM78.8 °F73.4 °F83 %29.89 in6.2 miCalmPartly Cloudy
8:30 AM78.8 °F75.2 °F89 %29.89 in6.2 miCalmPartly Cloudy
9:00 AM82.4 °F75.2 °F79 %29.89 in6.2 miCalmPartly Cloudy
9:30 AM84.2 °F75.2 °F74 %29.89 in6.2 miCalmPartly Cloudy
10:00 AM86.0 °F71.6 °F62 %29.89 in6.2 miCalmPartly Cloudy
10:30 AM87.8 °F73.4 °F62 %29.89 in6.2 miCalmPartly Cloudy
11:00 AM89.0 °F72.0 °F49 %29.88 in6.0 miWest (270°)3.5 mphScattered Clouds
11:00 AM89.6 °F71.6 °F55 %29.86 in6.2 miWest (270°)3.5 mphPartly Cloudy
11:30 AM89.6 °F75.2 °F62 %29.86 in6.2 miVariable2.3 mphPartly Cloudy
12:00 PM89.6 °F73.4 °F59 %29.83 in6.2 miVariable2.3 mph13.8 mphPartly Cloudy
12:30 PM91.4 °F73.4 °F55 %29.83 in6.2 miNW (310°)3.5 mphPartly Cloudy
1:00 PM89.6 °F75.2 °F62 %29.83 in6.2 miSW (230°)4.6 mphPartly Cloudy
1:30 PM89.6 °F75.2 °F62 %29.80 in6.2 miWest (270°)6.9 mphPartly Cloudy
2:00 PM90.0 °F75.0 °F53 %29.81 in7.0 miWest (270°)8.1 mphScattered Clouds
2:00 PM89.6 °F77.0 °F66 %29.80 in6.2 miWest (270°)8.1 mphPartly Cloudy
2:30 PM89.6 °F75.2 °F62 %29.80 in5.6 miWest (280°)8.1 mphPartly Cloudy
3:00 PM89.6 °F75.2 °F62 %29.77 in6.2 miWest (280°)8.1 mph20.7 mphScattered Clouds
3:30 PM87.8 °F75.2 °F66 %29.77 in6.2 miWest (280°)8.1 mphScattered Clouds
4:00 PM87.8 °F75.2 °F66 %29.77 in5.6 miWNW (290°)6.9 mphScattered Clouds
4:30 PM86.0 °F75.2 °F70 %29.77 in5.6 miVariable6.9 mphScattered Clouds
5:00 PM85.0 °F75.0 °F65 %29.80 in6.0 miWNW (290°)5.8 mphPartly Cloudy
5:00 PM86.0 °F75.2 °F70 %29.77 in5.6 miVariable5.8 mphScattered Clouds
5:30 PM84.2 °F75.2 °F74 %29.80 in5.6 miNW (320°)5.8 mphScattered Clouds
6:00 PM84.2 °F75.2 °F74 %29.80 in5.6 miNW (320°)3.5 mphScattered Clouds
6:30 PM84.2 °F73.4 °F70 %29.83 in5.0 miVariable3.5 mphScattered Clouds
7:00 PM82.4 °F77.0 °F84 %29.83 in5.0 miNNE (20°)3.5 mphPartly Cloudy
7:30 PM80.6 °F77.0 °F89 %29.83 in5.0 miNNE (20°)4.6 mphPartly Cloudy
8:00 PM80.0 °F78.0 °F90 %29.86 in5.0 miEast (80°)2.3 mphScattered Clouds
8:00 PM80.6 °F77.0 °F89 %29.83 in5.0 miVariable2.3 mphPartly Cloudy
8:30 PM0.0 °F0.0 °F29.86 in5.0 miVariable2.3 mphPartly Cloudy
9:00 PM80.6 °F77.0 °F89 %29.86 in5.0 miVariable1.2 mphPartly Cloudy
9:30 PM82.4 °F73.4 °F74 %29.86 in5.0 miNorth (10°)4.6 mphPartly Cloudy
10:00 PM78.8 °F75.2 °F89 %29.86 in5.0 miCalmPartly Cloudy
10:30 PM78.8 °F77.0 °F94 %29.86 in5.0 miEast (90°)2.3 mphPartly Cloudy
11:00 PM78.0 °F77.0 °F95 %29.87 in5.0 miESE (120°)1.2 mphScattered Clouds
11:00 PM77.0 °F77.0 °F100 %29.86 in5.0 miESE (120°)1.2 mphPartly Cloudy
11:30 PM78.8 °F77.0 °F94 %29.86 in5.0 miCalmPartly Cloudy
Hourly data recorded from WAAA, located miles away from Hasanudin, Indonesia




STORIES FROM OUR PARTNERS